EW1448 Weather Reports


Display with metric or nautical units.
time (UTC)temp
F
wind
direction
speed
MPH
gust
MPH
rain 1hr
in
rain 24hr
in
rain mn
in
humidity
%
barometer
mb
20260509011535 89 266 11.0 18.0 0.00 0.00 0.00 13 1011.0
20260509010058 90 276 8.0 16.0 0.00 0.00 0.00 13 1011.0
20260509004631 91 274 11.0 20.0 0.00 0.00 0.00 12 1011.0
20260508233049 92 269 7.0 18.0 0.00 0.00 0.00 12 1011.4
20260508231534 92 137 6.0 14.0 0.00 0.00 0.00 13 1011.3
20260508230033 90 209 9.0 17.0 0.00 0.00 0.00 13 1011.4
20260508224525 90 210 10.0 16.0 0.00 0.00 0.00 13 1011.6
20260508223040 90 189 9.0 17.0 0.00 0.00 0.00 13 1011.8
20260508221605 91 176 7.0 21.0 0.00 0.00 0.00 12 1012.0
20260508220033 90 222 6.0 17.0 0.00 0.00 0.00 12 1012.2
20260508214521 93 193 5.0 7.0 0.00 0.00 0.00 8 1012.5
20260508173100 81 277 2.0 4.0 0.00 0.00 0.00 14 1016.4
20260508171523 80 134 1.0 4.0 0.00 0.00 0.00 16 1016.5
20260508170033 78 94 1.0 4.0 0.00 0.00 0.00 18 1016.7
20260508164556 76 70 1.0 4.0 0.00 0.00 0.00 18 1016.8
20260508163029 76 52 1.0 4.0 0.00 0.00 0.00 18 1017.0
20260508161547 74 52 1.0 4.0 0.00 0.00 0.00 18 1017.0
20260508160026 74 119 1.0 3.0 0.00 0.00 0.00 18 1017.1
20260508154602 72 72 1.0 4.0 0.00 0.00 0.00 20 1017.1
20260508153035 70 49 0.0 5.0 0.00 0.00 0.00 19 1017.2
20260508151529 70 29 1.0 3.0 0.00 0.00 0.00 19 1017.3
20260508144520 67 356 1.0 4.0 0.00 0.00 0.00 21 1017.4
20260508143047 66 295 0.0 1.0 0.00 0.00 0.00 21 1017.4
20260508141541 66 52 0.0 1.0 0.00 0.00 0.00 23 1017.3
20260508140051 64 44 0.0 2.0 0.00 0.00 0.00 23 1017.2
20260508134547 64 4 0.0 1.0 0.00 0.00 0.00 24 1017.1
20260508133021 58 280 0.0 0.0 0.00 0.00 0.00 26 1017.0